Location: Foligno
(42.9600°N, 12.7050°E)
Time: 19:34:57
(UTC+02:00)

ISS - Visible Passes

Search period start: 16 May 2021 00:00
Search period end: 26 May 2021 00:00
Orbit: 417 x 422 km, 51.6° (Epoch: 15 May)

Date Brightness Start Highest point End Pass type
(mag) Time Alt. Az. Time Alt. Az. Time Alt. Az.
16 May -0.9 01:18:28 10° NW 01:20:57 19° N 01:23:25 10° NE visible
16 May -2.2 02:55:15 10° NW 02:58:26 37° NNE 03:01:36 10° E visible
16 May -3.2 04:32:07 10° WNW 04:35:14 35° SW 04:38:20 10° SSE visible
16 May -3.5 21:15:35 10° SW 21:18:49 46° SE 21:22:04 10° ENE visible
16 May -1.8 22:52:40 10° W 22:55:43 31° NNW 22:58:48 10° NE visible
17 May -0.9 00:30:49 10° NW 00:33:16 18° N 00:35:44 10° NE visible
17 May -1.7 02:07:52 10° NW 02:10:51 28° NNE 02:13:50 10° E visible
17 May -3.8 03:44:59 13° WNW 03:47:51 59° SW 03:51:11 10° SE visible
17 May -2.5 22:04:56 10° W 22:08:10 43° NNW 22:11:25 10° NE visible
17 May -0.9 23:43:05 10° NW 23:45:36 19° N 23:48:07 10° NE visible
18 May -1.3 01:20:27 10° NW 01:22:53 23° N 01:22:53 23° N visible
18 May -3.3 21:17:19 10° WSW 21:20:39 65° NNW 21:24:00 10° NE visible
18 May -1.1 22:55:16 10° WNW 22:57:56 21° N 23:00:35 10° NE visible
19 May -1.1 00:33:00 10° NW 00:35:35 20° N 00:36:27 18° NNE visible
19 May -1.4 22:07:26 10° WNW 22:10:17 25° NNW 22:13:09 10° NE visible
19 May -1.0 23:45:26 10° NW 23:47:55 19° N 23:50:16 11° NE visible
20 May -1.1 01:22:12 10° NW 01:23:11 17° NW 01:23:11 17° NW visible
20 May -1.8 21:19:37 10° W 21:22:40 31° NNW 21:25:44 10° NE visible
20 May -0.9 22:57:46 10° NW 23:00:13 18° N 23:02:39 10° NE visible
21 May -1.5 00:34:49 10° NW 00:37:05 26° N 00:37:05 26° N visible
21 May -1.0 22:10:01 10° NW 22:12:31 19° N 22:15:02 10° NE visible
21 May -1.5 23:47:23 10° NW 23:50:10 23° NNE 23:51:02 21° NE visible
22 May -1.1 21:22:11 10° WNW 21:24:50 21° NNW 21:27:30 10° NE visible
22 May -1.2 22:59:54 10° NW 23:02:29 20° N 23:05:00 10° ENE visible
23 May -1.4 00:36:31 10° NW 00:37:56 22° NW 00:37:56 22° NW visible
23 May -1.1 22:12:20 10° NW 22:14:48 19° N 22:17:16 10° NE visible
23 May -2.3 23:49:06 10° NW 23:51:57 36° N 23:51:57 36° N visible
24 May -1.1 21:24:39 10° NW 21:27:05 18° N 21:29:32 10° NE visible
24 May -1.9 23:01:41 10° NW 23:04:40 28° NNE 23:05:59 22° ENE visible
25 May -1.0 00:38:20 10° WNW 00:38:55 14° WNW 00:38:55 14° WNW visible
25 May -1.6 22:14:15 10° NW 22:17:01 23° NNE 22:19:47 10° ENE visible
25 May -2.3 23:50:49 10° NW 23:52:58 36° NW 23:52:58 36° NW visible
